NUSAT-48 (H. LEAVITT)

导读

NUSAT-48 (H. LEAVITT)是阿根廷于2024年8月16日发射的商业卫星,隶属于Satellogic公司的NUSAT地球观测星座。该星座由多颗小卫星组网,主要提供高分辨率对地观测服务,服务于农业监测、城市规划、自然资源管理等领域。卫星以天文学家亨丽埃塔·勒维特命名,致敬其在变星研究领域的开创性贡献,进一步充实了阿根廷商业航天的观测能力。

基本信息
目录编号:
60498
目录名称:
NUSAT-48 (H. LEAVITT)
国际标识:
2024-149AG
轨道中心:
EARTH
卫星名称:
NUSAT-48 (H. LEAVITT)
卫星全名:
NUSAT-48 (H. LEAVITT)
卫星状态:
在轨 (已飞行749 天)
发射日期:
2024-08-16 UTC
国别 :
阿根廷 (AR)
星等 :
--
轨道信息
数据来源 国际轨道数据
星历时间: 2026-09-04T11:48:53+0800
7小时前
查看轨道信息
半长轴: 6853.828km
偏心率: 0.0003098
轨道倾角: 97.387°
近地点辐角 20.801°
升交点赤经 328.247°
平近点角 339.336°
近地点: 473.567km
远地点: 477.815km
周期: 94.115分钟
每日圈数: 15.300408
详细信息
使用方式:
暂无
2D轨道图
3D轨道图
轨道高度分析图
轨道倾角分析图
轨道综合分析图
查看轨道综合分析图